Weather History for Bentonville, AR

Change the Weather History Date:

Sunday, May 19, 2013

  Actual Average Record
Temperature  
Mean Temperature 79 °F -  
Max Temperature 87 °F 77 °F 89 °F (1956)
Min Temperature 71 °F 54 °F 41 °F (1976)
Cooling Degree Days 14    
Growing Degree Days 29 (Base 50)    
Moisture  
Dew Point 64 °F    
Average Humidity 63    
Maximum Humidity 88    
Minimum Humidity 40    
Precipitation  
Precipitation 0.03 in - - ()
Sea Level Pressure  
Sea Level Pressure 29.77 in    
Wind  
Wind Speed 10 mph (South)    
Max Wind Speed 23 mph    
Max Gust Speed 30 mph    
Visibility 10 miles    
Events Thunderstorm    
Averages and records for this station are not official NWS values.
T = Trace of Precipitation, MM = Missing Value Source: NWS Daily Summary

Daily Weather History Graph

Daily Weather History Graph

Search for Another Location

Airport:

Trip Planner

Search our weather history database for the weather conditions in past years. The results will help you decide how hot, cold, wet, or windy it might be!

Date:

Astronomy

May. 19, 2013 Rise Set
Actual Time 6:07 AM CDT 8:20 PM CDT
Civil Twilight 5:38 AM CDT 8:49 PM CDT
Nautical Twilight 5:02 AM CDT 9:24 PM CDT
Astronomical Twilight 4:24 AM CDT 10:03 PM CDT
Moon 2:34 PM CDT (5/19) 2:20 AM CDT (5/19)
Length of Visible Light 15h 10m
Length of Day
14h 12m
Waxing Gibbous, 65% of the Moon is Illuminated
May 19
Waxing Gibbous
May 24
Full
May 31
Last Quarter
Jun 8
New
Jun 16
First Quarter

Hourly Weather History & Observations

Time (CDT) Temp. Heat Index Dew Point Humidity Pressure Visibility Wind Dir Wind Speed Gust Speed Precip Events Conditions
12:15 AM 71.6 °F - 66.2 °F 83% 29.84 in 8.0 mi South 6.9 mph - N/A   Clear
12:35 AM 73.4 °F - 66.2 °F 78% 29.83 in 10.0 mi SSE 8.1 mph - N/A   Clear
12:55 AM 73.4 °F - 66.2 °F 78% 29.84 in 10.0 mi South 5.8 mph - N/A   Clear
1:15 AM 73.4 °F - 66.2 °F 78% 29.85 in 10.0 mi South 6.9 mph - N/A   Clear
1:35 AM 71.6 °F - 66.2 °F 83% 29.85 in 10.0 mi SSW 5.8 mph - N/A   Clear
1:55 AM 73.4 °F - 68.0 °F 83% 29.85 in 10.0 mi South 5.8 mph - N/A   Clear
2:15 AM 73.4 °F - 68.0 °F 83% 29.86 in 10.0 mi SSW 5.8 mph - N/A   Clear
2:35 AM 73.4 °F - 68.0 °F 83% 29.85 in 10.0 mi South 8.1 mph - N/A   Clear
2:55 AM 73.4 °F - 68.0 °F 83% 29.85 in 10.0 mi South 6.9 mph - N/A   Clear
3:15 AM 73.4 °F - 68.0 °F 83% 29.83 in 10.0 mi Calm Calm - N/A   Mostly Cloudy
3:35 AM 71.6 °F - 68.0 °F 88% 29.81 in 8.0 mi SE 4.6 mph - N/A   Mostly Cloudy
3:55 AM 71.6 °F - 66.2 °F 83% 29.81 in 10.0 mi South 4.6 mph - N/A   Partly Cloudy
4:15 AM 73.4 °F - 66.2 °F 78% 29.80 in 10.0 mi South 8.1 mph - N/A   Clear
4:35 AM 73.4 °F - 68.0 °F 83% 29.80 in 10.0 mi SSE 6.9 mph - N/A   Clear
4:55 AM 71.6 °F - 66.2 °F 83% 29.80 in 9.0 mi South 4.6 mph - N/A   Clear
5:15 AM 71.6 °F - 68.0 °F 88% 29.81 in 9.0 mi South 5.8 mph - N/A   Clear
5:35 AM 71.6 °F - 68.0 °F 88% 29.80 in 9.0 mi South 6.9 mph - N/A   Clear
5:55 AM 73.4 °F - 68.0 °F 83% 29.80 in 10.0 mi South 6.9 mph - N/A   Clear
6:15 AM 73.4 °F - 66.2 °F 78% 29.81 in 9.0 mi South 8.1 mph - N/A   Clear
6:35 AM 73.4 °F - 66.2 °F 78% 29.81 in 10.0 mi South 10.4 mph - N/A   Clear
7:15 AM 73.4 °F - 66.2 °F 78% 29.82 in 10.0 mi SSW 8.1 mph 16.1 mph N/A   Clear
7:35 AM 73.4 °F - 66.2 °F 78% 29.83 in 10.0 mi South 10.4 mph 16.1 mph N/A   Clear
7:55 AM 75.2 °F - 66.2 °F 73% 29.84 in 10.0 mi SSW 9.2 mph 16.1 mph N/A   Clear
8:15 AM 75.2 °F - 64.4 °F 69% 29.84 in 10.0 mi SSW 10.4 mph - N/A   Clear
8:35 AM 75.2 °F - 64.4 °F 69% 29.84 in 10.0 mi South 6.9 mph - N/A   Clear
8:55 AM 75.2 °F - 64.4 °F 69% 29.83 in 10.0 mi South 11.5 mph - N/A   Clear
9:15 AM 77.0 °F - 64.4 °F 65% 29.82 in 10.0 mi South 12.7 mph 20.7 mph N/A   Clear
9:55 AM 78.8 °F - 62.6 °F 57% 29.81 in 10.0 mi South 12.7 mph 20.7 mph N/A   Clear
10:15 AM 78.8 °F - 60.8 °F 54% 29.80 in 10.0 mi South 13.8 mph 24.2 mph N/A   Clear
10:35 AM 80.6 °F 81.5 °F 60.8 °F 51% 29.80 in 10.0 mi South 13.8 mph 21.9 mph N/A   Clear
10:55 AM 80.6 °F 81.5 °F 60.8 °F 51% 29.80 in 10.0 mi South 12.7 mph 25.3 mph N/A   Clear
11:15 AM 82.4 °F 82.9 °F 60.8 °F 48% 29.80 in 10.0 mi South 12.7 mph 20.7 mph N/A   Partly Cloudy
11:35 AM 82.4 °F 82.9 °F 60.8 °F 48% 29.79 in 10.0 mi South 13.8 mph 18.4 mph N/A   Partly Cloudy
11:55 AM 82.4 °F 82.9 °F 60.8 °F 48% 29.79 in 10.0 mi South 13.8 mph 21.9 mph N/A   Scattered Clouds
12:15 PM 82.4 °F 82.9 °F 60.8 °F 48% 29.79 in 10.0 mi South 15.0 mph 20.7 mph N/A   Mostly Cloudy
12:35 PM 82.4 °F 82.9 °F 60.8 °F 48% 29.79 in 10.0 mi South 13.8 mph 20.7 mph N/A   Mostly Cloudy
12:55 PM 84.2 °F 84.4 °F 60.8 °F 45% 29.78 in 10.0 mi South 12.7 mph 24.2 mph N/A   Mostly Cloudy
1:15 PM 84.2 °F 85.0 °F 62.6 °F 48% 29.77 in 10.0 mi South 15.0 mph 21.9 mph N/A   Scattered Clouds
1:35 PM 84.2 °F 84.4 °F 60.8 °F 45% 29.77 in 10.0 mi South 16.1 mph 21.9 mph N/A   Partly Cloudy
2:15 PM 86.0 °F 86.6 °F 62.6 °F 45% 29.75 in 10.0 mi South 17.3 mph 24.2 mph N/A   Clear
2:35 PM 86.0 °F 86.6 °F 62.6 °F 45% 29.74 in 10.0 mi South 15.0 mph 24.2 mph N/A   Clear
3:15 PM 87.8 °F 88.5 °F 62.6 °F 43% 29.72 in 10.0 mi South 13.8 mph 21.9 mph N/A   Clear
3:35 PM 87.8 °F 88.5 °F 62.6 °F 43% 29.72 in 10.0 mi South 19.6 mph 26.5 mph N/A   Clear
3:55 PM 87.8 °F 88.5 °F 62.6 °F 43% 29.71 in 10.0 mi South 18.4 mph 26.5 mph N/A   Clear
4:15 PM 87.8 °F 88.5 °F 62.6 °F 43% 29.71 in 10.0 mi South 19.6 mph 26.5 mph N/A   Clear
4:35 PM 87.8 °F 87.6 °F 60.8 °F 40% 29.70 in 10.0 mi South 13.8 mph 27.6 mph N/A   Clear
4:55 PM 87.8 °F 87.6 °F 60.8 °F 40% 29.68 in 10.0 mi South 17.3 mph 27.6 mph N/A   Clear
5:15 PM 86.0 °F 86.1 °F 60.8 °F 43% 29.67 in 10.0 mi South 23.0 mph 29.9 mph N/A   Clear
5:35 PM 84.2 °F 84.4 °F 60.8 °F 45% 29.68 in 10.0 mi South 17.3 mph 24.2 mph N/A   Clear
5:55 PM 84.2 °F 84.4 °F 60.8 °F 45% 29.68 in 10.0 mi South 18.4 mph 25.3 mph N/A   Partly Cloudy
6:15 PM 84.2 °F 84.4 °F 60.8 °F 45% 29.67 in 10.0 mi South 19.6 mph 29.9 mph N/A   Clear
6:35 PM 82.4 °F 82.9 °F 60.8 °F 48% 29.69 in 10.0 mi South 16.1 mph 25.3 mph N/A   Clear
6:55 PM 82.4 °F 82.9 °F 60.8 °F 48% 29.70 in 10.0 mi South 12.7 mph 19.6 mph N/A   Partly Cloudy
7:15 PM 82.4 °F 82.9 °F 60.8 °F 48% 29.70 in 10.0 mi South 9.2 mph - N/A   Partly Cloudy
7:35 PM 80.6 °F 81.8 °F 62.6 °F 54% 29.71 in 10.0 mi South 10.4 mph 19.6 mph N/A   Clear
7:55 PM 80.6 °F 81.8 °F 62.6 °F 54% 29.72 in 10.0 mi South 12.7 mph - N/A   Clear
8:15 PM 80.6 °F 81.8 °F 62.6 °F 54% 29.72 in 10.0 mi South 12.7 mph 16.1 mph N/A Thunderstorm Scattered Clouds
8:35 PM 78.8 °F - 62.6 °F 57% 29.72 in 10.0 mi South 8.1 mph - N/A Thunderstorm Scattered Clouds
8:55 PM 75.2 °F - 64.4 °F 69% 29.72 in 9.0 mi South 11.5 mph 19.6 mph 0.03 in Thunderstorm Thunderstorm
9:15 PM 75.2 °F - 64.4 °F 69% 29.71 in 10.0 mi South 15.0 mph 20.7 mph N/A   Partly Cloudy
9:35 PM 75.2 °F - 64.4 °F 69% 29.72 in 10.0 mi South 13.8 mph 20.7 mph N/A   Clear
9:55 PM 77.0 °F - 64.4 °F 65% 29.71 in 10.0 mi South 15.0 mph 24.2 mph N/A   Clear
10:15 PM 77.0 °F - 64.4 °F 65% 29.72 in 10.0 mi SSE 15.0 mph 21.9 mph N/A   Clear
10:35 PM 78.8 °F - 64.4 °F 61% 29.72 in 10.0 mi South 13.8 mph 25.3 mph N/A   Clear
11:15 PM 77.0 °F - 64.4 °F 65% 29.72 in 10.0 mi South 17.3 mph 24.2 mph N/A   Partly Cloudy
11:35 PM 77.0 °F - 64.4 °F 65% 29.74 in 10.0 mi South 13.8 mph 21.9 mph N/A   Partly Cloudy
11:55 PM 77.0 °F - 64.4 °F 65% 29.74 in 10.0 mi South 12.7 mph 18.4 mph N/A   Clear